contact:dominique.lefevre@mio.osupytheas.fr, maurice.libes@osupytheas.fr, didier.mallarino@osupytheas.fr
Project:EMSO http://www.emso-fr.org/EMSO-France
Depth: 2436.0 m
Title:EMSO Ligure Ouest : Data MII capteur AQUADOPP
Date,Latitude,Longitude,X_East,Y_North,Z_Up,Amplitude_X,Amplitude_Y,Amplitude_Z,Batterie,SoundSpeed,Heading,Pitch,Roll,Pressure,TIS,Speed,Direction
, degrees North, degrees East, m.s-1, m.s-1,m.s-1, 1, 1, 1, Volt, m.s-1, degree, degree, degree, dbar, degree_C, m.s-1, degree
2022-10-03T00:04:03,42.805,6.029,-0.043,0.03,0.006,101.0,102.0,101.0,13.4,1505.2,320.4,-0.7,1.8,2471.06,13.28,0.052,304.9
2022-10-03T00:07:03,42.805,6.029,-0.021,0.045,0.024,101.0,101.0,100.0,13.3,1505.2,333.4,-0.7,1.8,2471.061,13.29,0.049,335.0
2022-10-03T00:10:03,42.805,6.029,-0.028,0.021,0.008,101.0,102.0,101.0,13.4,1505.2,325.3,-0.7,1.8,2471.03,13.29,0.035,306.9
2022-10-03T00:13:03,42.805,6.029,-0.01,0.011,0.007,101.0,103.0,100.0,13.4,1505.2,328.2,-0.7,1.8,2471.052,13.29,0.014,317.7
2022-10-03T00:16:03,42.805,6.029,-0.026,0.019,-0.007,102.0,102.0,100.0,13.3,1505.2,322.2,-0.8,1.8,2470.985,13.29,0.032,306.2
2022-10-03T00:19:03,42.805,6.029,-0.011,0.011,-0.002,103.0,102.0,100.0,13.3,1505.2,320.3,-0.7,1.8,2471.041,13.29,0.015,315.0
2022-10-03T00:22:03,42.805,6.029,-0.017,0.026,0.022,102.0,102.0,101.0,13.3,1505.2,329.7,-0.8,1.8,2471.026,13.29,0.031,326.8
2022-10-03T00:25:03,42.805,6.029,-0.028,0.028,0.01,101.0,103.0,100.0,13.4,1505.2,320.3,-0.7,1.8,2471.004,13.29,0.039,315.0
2022-10-03T00:28:03,42.805,6.029,-0.031,0.015,0.001,102.0,102.0,99.0,13.4,1505.2,320.4,-0.7,1.8,2471.012,13.29,0.034,295.8
2022-10-03T00:31:03,42.805,6.029,-0.048,0.021,-0.008,101.0,103.0,100.0,13.4,1505.2,323.2,-0.8,1.8,2471.017,13.29,0.052,293.6
2022-10-03T00:34:03,42.805,6.029,-0.033,0.013,-0.023,101.0,102.0,101.0,13.4,1505.2,328.4,-0.8,1.8,2470.991,13.29,0.035,291.5
2022-10-03T00:37:03,42.805,6.029,-0.006,0.032,0.037,102.0,101.0,101.0,13.4,1505.2,327.8,-0.7,1.8,2471.001,13.29,0.032,349.4
2022-10-03T00:40:03,42.805,6.029,-0.047,0.011,-0.021,102.0,102.0,100.0,13.4,1505.2,327.0,-0.7,1.8,2471.008,13.29,0.048,283.2
2022-10-03T00:43:03,42.805,6.029,-0.045,0.007,-0.037,102.0,102.0,100.0,13.3,1505.2,332.2,-0.7,1.8,2471.001,13.29,0.045,278.8
2022-10-03T00:46:03,42.805,6.029,-0.011,0.009,-0.003,101.0,101.0,100.0,13.4,1505.2,325.7,-0.8,1.8,2470.971,13.29,0.014,309.3
2022-10-03T00:49:03,42.805,6.029,-0.033,0.019,0.019,101.0,101.0,100.0,13.4,1505.2,325.7,-0.8,1.8,2470.985,13.29,0.038,299.9
2022-10-03T00:52:03,42.805,6.029,-0.017,0.001,-0.033,101.0,101.0,100.0,13.4,1505.2,318.4,-0.8,1.8,2470.986,13.29,0.017,273.4
2022-10-03T00:55:03,42.805,6.029,-0.029,0.027,-0.018,101.0,102.0,101.0,13.3,1505.2,325.1,-0.7,1.8,2471.02,13.29,0.039,313.0
2022-10-03T00:58:03,42.805,6.029,-0.012,0.038,0.022,102.0,101.0,101.0,13.4,1505.2,333.1,-0.8,1.8,2470.959,13.29,0.039,342.5
2022-10-03T01:04:03,42.805,6.029,-0.025,0.01,-0.05,103.0,102.0,101.0,13.3,1505.2,322.0,-0.7,1.9,2471.021,13.28,0.026,291.8
2022-10-03T01:07:03,42.805,6.029,-0.029,0.042,0.023,102.0,102.0,101.0,13.4,1505.2,330.1,-0.8,1.8,2471.045,13.29,0.051,325.4
2022-10-03T01:10:03,42.805,6.029,-0.051,0.012,0.015,101.0,102.0,100.0,13.4,1505.2,325.8,-0.7,1.8,2471.034,13.29,0.052,283.2
2022-10-03T01:13:03,42.805,6.029,-0.019,0.029,0.009,101.0,101.0,101.0,13.4,1505.2,330.5,-0.7,1.8,2471.04,13.29,0.034,326.8
2022-10-03T01:16:03,42.805,6.029,-0.052,0.036,-0.025,102.0,104.0,99.0,13.4,1505.2,328.1,-0.8,1.8,2471.017,13.29,0.063,304.7
2022-10-03T01:19:03,42.805,6.029,-0.019,0.009,0.0,101.0,101.0,100.0,13.4,1505.2,326.4,-0.7,1.8,2471.039,13.29,0.021,295.3
2022-10-03T01:22:03,42.805,6.029,-0.042,0.049,-0.001,101.0,102.0,101.0,13.3,1505.2,319.9,-0.7,1.8,2470.991,13.29,0.064,319.4
2022-10-03T01:25:03,42.805,6.029,-0.07,0.018,-0.002,102.0,102.0,101.0,13.4,1505.2,318.5,-0.8,1.8,2471.013,13.29,0.072,284.4
2022-10-03T01:28:03,42.805,6.029,-0.025,0.019,-0.007,101.0,103.0,99.0,13.4,1505.2,330.9,-0.8,1.8,2470.992,13.29,0.031,307.2
2022-10-03T01:31:03,42.805,6.029,-0.047,0.043,0.017,102.0,102.0,101.0,13.3,1505.2,321.0,-0.8,1.8,2471.009,13.29,0.063,312.5
2022-10-03T01:34:03,42.805,6.029,-0.042,0.044,0.038,101.0,100.0,101.0,13.3,1505.2,320.0,-0.8,1.8,2470.978,13.29,0.06,316.3
2022-10-03T01:37:03,42.805,6.029,-0.054,0.033,0.0,101.0,102.0,101.0,13.3,1505.2,326.8,-0.8,1.8,2470.969,13.29,0.063,301.4
2022-10-03T01:40:03,42.805,6.029,-0.017,0.015,0.01,102.0,102.0,99.0,13.4,1505.2,325.4,-0.7,1.8,2470.97,13.29,0.022,311.4
2022-10-03T01:43:03,42.805,6.029,-0.015,0.041,0.024,103.0,101.0,100.0,13.3,1505.2,317.4,-0.7,1.8,2470.962,13.29,0.043,339.9
2022-10-03T01:46:03,42.805,6.029,-0.029,0.017,-0.001,101.0,102.0,101.0,13.4,1505.2,322.0,-0.7,1.8,2470.991,13.29,0.033,300.4
2022-10-03T01:49:03,42.805,6.029,-0.038,0.036,-0.008,99.0,103.0,100.0,13.4,1505.2,327.0,-0.8,1.8,2470.992,13.29,0.052,313.5
2022-10-03T01:52:03,42.805,6.029,-0.04,0.042,-0.002,101.0,102.0,101.0,13.4,1505.2,324.6,-0.8,1.8,2471.03,13.29,0.057,316.4
2022-10-03T01:55:03,42.805,6.029,-0.035,0.057,0.007,100.0,103.0,101.0,13.3,1505.2,326.6,-0.7,1.8,2470.991,13.29,0.066,328.4
2022-10-03T01:58:03,42.805,6.029,-0.04,0.018,-0.021,103.0,102.0,100.0,13.4,1505.2,317.0,-0.8,1.8,2471.006,13.29,0.043,294.2
2022-10-03T02:04:03,42.805,6.029,-0.037,0.023,0.001,101.0,101.0,101.0,13.4,1505.2,318.6,-0.8,1.8,2471.058,13.29,0.043,301.9
2022-10-03T02:07:03,42.805,6.029,-0.025,0.027,-0.02,101.0,102.0,100.0,13.4,1505.2,320.9,-0.8,1.8,2471.029,13.29,0.036,317.2
2022-10-03T02:10:03,42.805,6.029,-0.016,0.042,0.002,100.0,102.0,100.0,13.4,1505.2,324.8,-0.8,1.8,2470.992,13.29,0.044,339.1
2022-10-03T02:13:03,42.805,6.029,-0.011,0.028,-0.002,100.0,103.0,100.0,13.4,1505.2,327.6,-0.7,1.8,2471.021,13.29,0.03,338.6
2022-10-03T02:16:03,42.805,6.029,-0.008,0.022,0.011,101.0,101.0,101.0,13.4,1505.2,329.2,-0.8,1.9,2470.963,13.29,0.023,340.0
2022-10-03T02:19:03,42.805,6.029,-0.034,0.036,0.01,101.0,101.0,100.0,13.4,1505.2,329.8,-0.8,1.8,2470.998,13.29,0.049,316.6
2022-10-03T02:22:03,42.805,6.029,-0.018,0.025,-0.002,102.0,102.0,99.0,13.4,1505.2,325.9,-0.8,1.8,2471.0,13.29,0.03,324.2
2022-10-03T02:25:03,42.805,6.029,-0.038,0.024,0.01,102.0,101.0,100.0,13.4,1505.2,318.6,-0.8,1.8,2470.976,13.29,0.044,302.3
2022-10-03T02:28:03,42.805,6.029,-0.065,0.037,-0.009,100.0,102.0,100.0,13.4,1505.2,327.1,-0.7,1.8,2471.004,13.29,0.074,299.7
2022-10-03T02:31:03,42.805,6.029,-0.082,0.042,-0.033,101.0,101.0,100.0,13.4,1505.2,324.1,-0.8,1.8,2470.99,13.29,0.092,297.1
2022-10-03T02:34:03,42.805,6.029,-0.047,0.006,0.004,103.0,104.0,99.0,13.4,1505.2,320.9,-0.7,1.8,2470.951,13.29,0.047,277.3
2022-10-03T02:37:03,42.805,6.029,-0.019,0.013,-0.012,103.0,102.0,99.0,13.4,1505.2,324.4,-0.8,1.8,2471.022,13.29,0.023,304.4
2022-10-03T02:40:03,42.805,6.029,-0.023,0.03,0.0,103.0,102.0,101.0,13.3,1505.2,321.4,-0.8,1.8,2470.942,13.29,0.037,322.5
2022-10-03T02:43:03,42.805,6.029,-0.018,0.015,0.007,101.0,102.0,99.0,13.4,1505.2,327.8,-0.7,1.8,2470.966,13.29,0.023,309.8
2022-10-03T02:46:03,42.805,6.029,-0.03,0.01,0.046,101.0,101.0,100.0,13.4,1505.2,318.4,-0.8,1.8,2470.97,13.29,0.031,288.4
2022-10-03T02:49:03,42.805,6.029,-0.012,0.021,0.007,101.0,102.0,101.0,13.3,1505.2,332.5,-0.7,1.8,2470.982,13.29,0.024,330.3
2022-10-03T02:52:03,42.805,6.029,-0.029,0.047,0.031,100.0,101.0,100.0,13.4,1505.2,328.2,-0.7,1.8,2470.935,13.29,0.055,328.3
2022-10-03T02:55:03,42.805,6.029,-0.04,0.02,-0.04,101.0,103.0,100.0,13.3,1505.2,331.2,-0.7,1.8,2470.969,13.29,0.044,296.6
2022-10-03T02:58:03,42.805,6.029,-0.01,0.028,-0.03,101.0,102.0,100.0,13.4,1505.2,330.4,-0.7,1.8,2471.012,13.29,0.029,340.4
2022-10-03T03:04:03,42.805,6.029,-0.03,0.029,0.0,101.0,102.0,100.0,13.4,1505.2,316.2,-0.7,1.8,2471.042,13.29,0.041,314.0
2022-10-03T03:07:03,42.805,6.029,-0.049,0.034,0.006,101.0,102.0,100.0,13.4,1505.2,317.6,-0.8,1.8,2471.0,13.29,0.059,304.8
2022-10-03T03:10:03,42.805,6.029,-0.046,0.017,0.016,101.0,102.0,100.0,13.4,1505.2,323.4,-0.8,1.8,2471.021,13.29,0.049,290.3
2022-10-03T03:13:03,42.805,6.029,-0.023,0.014,0.019,101.0,102.0,100.0,13.4,1505.2,322.3,-0.8,1.8,2471.042,13.29,0.026,301.3
2022-10-03T03:16:03,42.805,6.029,-0.049,0.016,0.004,102.0,100.0,99.0,13.3,1505.2,325.1,-0.8,1.8,2470.961,13.29,0.051,288.1
2022-10-03T03:19:03,42.805,6.029,-0.031,0.012,-0.021,102.0,102.0,101.0,13.3,1505.2,323.1,-0.8,1.8,2470.976,13.29,0.033,291.2
2022-10-03T03:22:03,42.805,6.029,-0.054,0.015,-0.013,100.0,102.0,100.0,13.3,1505.2,319.0,-0.8,1.8,2471.024,13.29,0.056,285.5
2022-10-03T03:25:03,42.805,6.029,-0.046,0.028,0.008,101.0,102.0,100.0,13.4,1505.2,322.7,-0.8,1.8,2471.001,13.29,0.053,301.3
2022-10-03T03:28:03,42.805,6.029,-0.01,0.036,0.045,101.0,102.0,100.0,13.4,1505.2,320.3,-0.8,1.8,2470.982,13.29,0.037,344.5
2022-10-03T03:31:03,42.805,6.029,-0.041,0.041,0.002,100.0,102.0,100.0,13.4,1505.2,327.6,-0.7,1.8,2470.995,13.29,0.057,315.0
2022-10-03T03:34:03,42.805,6.029,-0.029,0.029,0.0,101.0,101.0,100.0,13.3,1505.2,327.0,-0.8,1.8,2470.974,13.29,0.041,315.0
2022-10-03T03:37:03,42.805,6.029,-0.04,0.018,0.008,101.0,102.0,100.0,13.4,1505.2,319.0,-0.8,1.8,2470.969,13.29,0.043,294.2
2022-10-03T03:40:03,42.805,6.029,-0.044,0.034,0.005,101.0,102.0,101.0,13.3,1505.2,327.9,-0.8,1.8,2470.972,13.29,0.055,307.7
2022-10-03T03:43:03,42.805,6.029,-0.014,0.027,0.021,101.0,102.0,101.0,13.4,1505.2,323.1,-0.8,1.8,2470.942,13.29,0.03,332.6
2022-10-03T03:46:03,42.805,6.029,-0.007,0.011,-0.034,102.0,101.0,100.0,13.3,1505.2,327.3,-0.7,1.8,2470.954,13.29,0.013,327.5
2022-10-03T03:49:03,42.805,6.029,-0.011,0.019,0.005,101.0,100.0,100.0,13.4,1505.2,332.8,-0.8,1.8,2470.951,13.29,0.021,329.9
2022-10-03T03:52:03,42.805,6.029,-0.033,0.043,0.002,102.0,102.0,100.0,13.4,1505.2,327.3,-0.8,1.8,2470.953,13.29,0.054,322.5
2022-10-03T03:55:03,42.805,6.029,-0.035,0.007,0.004,101.0,101.0,100.0,13.4,1505.2,320.7,-0.7,1.8,2470.963,13.29,0.035,281.3
2022-10-03T03:58:03,42.805,6.029,-0.042,0.022,-0.036,100.0,102.0,101.0,13.4,1505.2,318.9,-0.7,1.8,2470.982,13.29,0.047,297.6
2022-10-03T04:04:03,42.805,6.029,-0.025,0.021,0.028,100.0,101.0,100.0,13.3,1505.2,320.6,-0.7,1.8,2471.013,13.29,0.032,310.0
2022-10-03T04:07:03,42.805,6.029,-0.018,-0.007,-0.045,101.0,102.0,100.0,13.3,1505.2,326.4,-0.8,1.8,2471.011,13.29,0.019,248.8
2022-10-03T04:10:03,42.805,6.029,-0.036,0.011,-0.039,102.0,102.0,100.0,13.4,1505.2,320.7,-0.8,1.9,2470.991,13.29,0.037,287.0
2022-10-03T04:13:03,42.805,6.029,-0.035,0.013,-0.029,100.0,103.0,99.0,13.4,1505.2,324.6,-0.8,1.8,2470.996,13.29,0.037,290.4
2022-10-03T04:16:03,42.805,6.029,-0.031,0.037,0.028,101.0,102.0,100.0,13.3,1505.2,327.5,-0.7,1.8,2471.0,13.29,0.048,320.0
2022-10-03T04:19:03,42.805,6.029,-0.06,0.0,-0.032,101.0,102.0,100.0,13.3,1505.2,317.0,-0.7,1.8,2470.982,13.29,0.06,270.0
2022-10-03T04:22:03,42.805,6.029,-0.033,0.047,0.023,102.0,102.0,100.0,13.4,1505.2,328.4,-0.8,1.8,2470.973,13.29,0.057,324.9
2022-10-03T04:25:03,42.805,6.029,-0.023,0.028,0.0,101.0,102.0,100.0,13.4,1505.2,323.4,-0.8,1.8,2470.967,13.29,0.036,320.6
2022-10-03T04:28:03,42.805,6.029,-0.032,0.02,-0.013,101.0,102.0,101.0,13.3,1505.2,318.0,-0.8,1.8,2470.942,13.29,0.037,302.0
2022-10-03T04:31:03,42.805,6.029,-0.012,0.034,-0.002,101.0,101.0,100.0,13.4,1505.2,333.1,-0.8,1.8,2470.952,13.29,0.036,340.6
2022-10-03T04:34:03,42.805,6.029,-0.043,0.019,0.006,102.0,101.0,100.0,13.4,1505.2,328.0,-0.8,1.8,2470.953,13.29,0.047,293.8
2022-10-03T04:37:03,42.805,6.029,-0.037,0.04,0.02,101.0,102.0,100.0,13.4,1505.2,324.8,-0.8,1.8,2470.939,13.29,0.054,317.2
2022-10-03T04:40:03,42.805,6.029,-0.032,0.022,-0.04,101.0,102.0,100.0,13.4,1505.2,323.5,-0.8,1.8,2470.942,13.29,0.038,304.5
2022-10-03T04:43:03,42.805,6.029,-0.037,0.039,0.006,101.0,101.0,100.0,13.4,1505.2,332.5,-0.8,1.8,2470.933,13.29,0.053,316.5
2022-10-03T04:46:03,42.805,6.029,-0.018,0.025,-0.014,102.0,102.0,99.0,13.3,1505.2,321.8,-0.7,1.8,2470.976,13.29,0.03,324.2
2022-10-03T04:49:03,42.805,6.029,-0.005,0.021,0.012,101.0,102.0,100.0,13.4,1505.2,320.3,-0.7,1.8,2470.936,13.29,0.021,346.6
2022-10-03T04:52:03,42.805,6.029,-0.025,0.022,0.02,101.0,102.0,100.0,13.4,1505.2,318.3,-0.8,1.8,2470.953,13.29,0.033,311.3
2022-10-03T04:55:03,42.805,6.029,-0.04,0.016,-0.022,102.0,101.0,100.0,13.3,1505.2,327.2,-0.8,1.8,2470.928,13.29,0.043,291.8
2022-10-03T04:58:03,42.805,6.029,-0.026,0.03,0.006,100.0,102.0,101.0,13.4,1505.2,324.6,-0.8,1.8,2470.948,13.29,0.039,319.1
2022-10-03T05:04:03,42.805,6.029,-0.039,0.028,-0.003,101.0,102.0,100.0,13.3,1505.2,332.8,-0.7,1.9,2470.97,13.28,0.048,305.7
2022-10-03T05:07:03,42.805,6.029,-0.04,0.016,-0.034,101.0,102.0,100.0,13.4,1505.2,320.5,-0.8,1.8,2470.973,13.28,0.043,291.8
2022-10-03T05:10:03,42.805,6.029,-0.039,0.043,0.004,101.0,102.0,100.0,13.4,1505.2,317.9,-0.7,1.8,2470.964,13.29,0.058,317.8
2022-10-03T05:13:03,42.805,6.029,-0.035,0.026,0.008,102.0,102.0,100.0,13.4,1505.2,329.8,-0.8,1.8,2470.943,13.29,0.043,306.6
2022-10-03T05:16:03,42.805,6.029,-0.034,0.004,-0.015,101.0,102.0,100.0,13.4,1505.2,321.7,-0.8,1.8,2470.932,13.29,0.034,276.7
2022-10-03T05:19:03,42.805,6.029,-0.045,0.039,0.022,102.0,101.0,100.0,13.4,1505.2,326.9,-0.8,1.8,2470.947,13.29,0.059,310.9
2022-10-03T05:22:03,42.805,6.029,-0.033,0.019,-0.006,101.0,101.0,100.0,13.4,1505.2,322.7,-0.7,1.8,2470.923,13.29,0.038,299.9
2022-10-03T05:25:03,42.805,6.029,-0.025,0.041,-0.006,101.0,102.0,101.0,13.4,1505.2,328.5,-0.8,1.8,2470.948,13.29,0.048,328.6
2022-10-03T05:28:03,42.805,6.029,-0.042,0.021,-0.005,104.0,101.0,100.0,13.4,1505.2,332.0,-0.7,1.8,2470.959,13.29,0.046,296.6
2022-10-03T05:31:03,42.805,6.029,-0.046,0.013,-0.019,102.0,100.0,100.0,13.4,1505.2,325.4,-0.7,1.8,2470.947,13.29,0.047,285.8
2022-10-03T05:34:03,42.805,6.029,-0.018,0.019,0.0,104.0,103.0,99.0,13.4,1505.2,323.5,-0.7,1.8,2470.925,13.29,0.026,316.5
2022-10-03T05:37:03,42.805,6.029,-0.018,-0.013,0.011,102.0,102.0,100.0,13.4,1505.2,320.5,-0.8,1.8,2470.936,13.29,0.022,234.2
2022-10-03T05:40:03,42.805,6.029,-0.035,0.024,0.015,101.0,101.0,100.0,13.3,1505.2,329.7,-0.8,1.8,2470.947,13.29,0.042,304.4
2022-10-03T05:43:03,42.805,6.029,-0.033,0.016,-0.016,102.0,102.0,100.0,13.4,1505.2,321.6,-0.7,1.8,2470.932,13.29,0.036,295.9
2022-10-03T05:46:03,42.805,6.029,-0.019,0.027,0.026,101.0,102.0,100.0,13.4,1505.2,323.1,-0.8,1.8,2470.945,13.29,0.033,324.9
2022-10-03T05:49:03,42.805,6.029,-0.029,0.034,0.005,101.0,102.0,100.0,13.3,1505.2,330.7,-0.7,1.8,2470.954,13.29,0.044,319.5
2022-10-03T05:52:03,42.805,6.029,-0.013,0.012,-0.032,101.0,102.0,100.0,13.4,1505.2,318.5,-0.8,1.8,2470.94,13.29,0.017,312.7
2022-10-03T05:55:03,42.805,6.029,-0.028,0.034,0.028,101.0,101.0,100.0,13.4,1505.2,321.6,-0.7,1.8,2470.918,13.29,0.044,320.5
2022-10-03T05:58:03,42.805,6.029,-0.021,0.029,-0.005,100.0,101.0,100.0,13.4,1505.2,327.2,-0.8,1.8,2470.909,13.29,0.035,324.1
2022-10-03T06:04:03,42.805,6.029,-0.03,0.025,-0.008,101.0,102.0,100.0,13.3,1505.2,329.1,-0.8,1.8,2470.962,13.28,0.039,309.8
2022-10-03T06:07:03,42.805,6.029,-0.033,0.03,0.014,102.0,103.0,99.0,13.4,1505.2,325.9,-0.7,1.8,2471.021,13.28,0.044,312.3
2022-10-03T06:10:03,42.805,6.029,-0.042,0.032,0.035,101.0,102.0,101.0,13.3,1505.2,317.0,-0.7,1.8,2470.97,13.29,0.052,307.3
2022-10-03T06:13:03,42.805,6.029,-0.028,0.016,-0.024,101.0,102.0,100.0,13.4,1505.2,331.2,-0.8,1.8,2470.979,13.29,0.032,299.7
2022-10-03T06:16:03,42.805,6.029,-0.056,0.039,-0.004,102.0,102.0,100.0,13.4,1505.2,321.4,-0.8,1.8,2470.943,13.29,0.068,304.9
2022-10-03T06:19:03,42.805,6.029,-0.044,0.026,0.01,100.0,102.0,100.0,13.3,1505.2,317.0,-0.8,1.8,2470.959,13.29,0.051,300.6
2022-10-03T06:22:03,42.805,6.029,-0.02,0.029,0.022,100.0,102.0,100.0,13.3,1505.2,321.0,-0.8,1.8,2470.923,13.29,0.035,325.4
2022-10-03T06:25:03,42.805,6.029,-0.034,0.044,0.04,101.0,102.0,100.0,13.4,1505.2,331.3,-0.8,1.8,2470.94,13.29,0.055,322.3
2022-10-03T06:28:03,42.805,6.029,-0.031,0.022,-0.006,101.0,102.0,100.0,13.3,1505.2,321.4,-0.8,1.8,2470.929,13.29,0.038,305.4
2022-10-03T06:31:03,42.805,6.029,-0.035,0.008,-0.027,101.0,101.0,100.0,13.4,1505.2,328.1,-0.7,1.8,2470.951,13.29,0.035,282.9
2022-10-03T06:34:03,42.805,6.029,-0.005,-0.011,-0.024,101.0,101.0,100.0,13.3,1505.2,321.9,-0.7,1.8,2470.94,13.29,0.012,204.4
2022-10-03T06:37:03,42.805,6.029,-0.025,0.022,0.011,100.0,102.0,100.0,13.4,1505.2,330.9,-0.7,1.8,2470.953,13.29,0.033,311.3
2022-10-03T06:40:03,42.805,6.029,-0.031,0.02,0.004,101.0,102.0,100.0,13.3,1505.2,324.9,-0.7,1.8,2470.936,13.29,0.036,302.8
2022-10-03T06:43:03,42.805,6.029,-0.012,-0.006,-0.005,101.0,102.0,100.0,13.4,1505.2,321.4,-0.8,1.8,2470.947,13.29,0.013,243.4
2022-10-03T06:46:03,42.805,6.029,-0.022,0.024,-0.008,102.0,102.0,101.0,13.4,1505.2,325.3,-0.8,1.8,2470.897,13.29,0.032,317.5
2022-10-03T06:49:03,42.805,6.029,-0.037,0.028,0.013,100.0,101.0,101.0,13.4,1505.2,322.7,-0.8,1.8,2470.929,13.29,0.046,307.1
2022-10-03T06:52:03,42.805,6.029,-0.055,0.032,0.014,101.0,102.0,100.0,13.4,1505.2,317.4,-0.7,1.8,2470.935,13.29,0.063,300.2
2022-10-03T06:55:03,42.805,6.029,-0.043,0.009,-0.029,102.0,101.0,100.0,13.4,1505.2,328.6,-0.8,1.8,2470.933,13.29,0.043,281.8
2022-10-03T06:58:03,42.805,6.029,-0.055,0.013,-0.006,101.0,102.0,100.0,13.4,1505.2,323.5,-0.8,1.8,2470.936,13.29,0.056,283.3
2022-10-03T07:04:03,42.805,6.029,-0.037,0.027,-0.011,100.0,101.0,100.0,13.3,1505.2,325.6,-0.8,1.8,2470.969,13.28,0.045,306.1
2022-10-03T07:07:03,42.805,6.029,-0.054,0.033,0.023,100.0,102.0,100.0,13.3,1505.2,317.1,-0.7,1.8,2470.99,13.28,0.063,301.4
2022-10-03T07:10:03,42.805,6.029,-0.013,0.024,0.007,101.0,102.0,101.0,13.4,1505.2,332.4,-0.8,1.8,2470.956,13.29,0.027,331.6
2022-10-03T07:13:03,42.805,6.029,-0.015,0.031,0.007,102.0,102.0,100.0,13.3,1505.2,326.4,-0.8,1.8,2470.971,13.29,0.034,334.2
2022-10-03T07:16:03,42.805,6.029,-0.026,0.017,-0.034,101.0,101.0,101.0,13.3,1505.2,325.1,-0.8,1.9,2470.944,13.29,0.031,303.2
2022-10-03T07:19:03,42.805,6.029,-0.049,0.047,-0.019,101.0,101.0,100.0,13.3,1505.2,328.2,-0.8,1.8,2470.92,13.29,0.067,313.8
2022-10-03T07:22:03,42.805,6.029,-0.044,0.031,0.023,101.0,102.0,100.0,13.4,1505.2,322.5,-0.7,1.8,2470.942,13.29,0.053,305.2
2022-10-03T07:25:03,42.805,6.029,-0.058,0.021,-0.016,101.0,102.0,100.0,13.3,1505.2,322.5,-0.8,1.8,2470.941,13.29,0.061,289.9
2022-10-03T07:28:03,42.805,6.029,-0.038,0.034,-0.016,101.0,102.0,100.0,13.4,1505.2,319.8,-0.8,1.8,2470.952,13.29,0.05,311.8
2022-10-03T07:31:03,42.805,6.029,-0.041,0.012,0.019,102.0,101.0,100.0,13.3,1505.2,321.1,-0.7,1.8,2470.927,13.29,0.042,286.3
2022-10-03T07:34:03,42.805,6.029,-0.052,0.001,-0.033,100.0,101.0,101.0,13.4,1505.2,321.7,-0.8,1.8,2470.947,13.29,0.052,271.1
2022-10-03T07:37:03,42.805,6.029,-0.042,0.036,-0.042,101.0,102.0,100.0,13.3,1505.2,328.3,-0.8,1.8,2470.935,13.29,0.055,310.6
2022-10-03T07:40:03,42.805,6.029,-0.04,0.014,-0.006,101.0,101.0,100.0,13.4,1505.2,323.1,-0.7,1.8,2470.939,13.29,0.042,289.3
2022-10-03T07:43:03,42.805,6.029,-0.06,0.015,-0.031,101.0,101.0,100.0,13.4,1505.2,327.6,-0.8,1.9,2470.964,13.29,0.061,284.0
2022-10-03T07:46:03,42.805,6.029,-0.044,0.048,0.011,99.0,101.0,101.0,13.4,1505.2,322.3,-0.7,1.8,2470.947,13.29,0.065,317.5
2022-10-03T07:49:03,42.805,6.029,-0.041,0.024,0.018,99.0,103.0,99.0,13.3,1505.2,321.5,-0.8,1.9,2470.953,13.29,0.047,300.3
2022-10-03T07:52:03,42.805,6.029,-0.029,0.031,-0.017,102.0,102.0,99.0,13.4,1505.2,323.6,-0.8,1.8,2470.933,13.29,0.042,316.9
2022-10-03T07:55:03,42.805,6.029,-0.057,0.026,-0.015,100.0,102.0,100.0,13.4,1505.2,326.1,-0.8,1.8,2470.975,13.29,0.062,294.5
2022-10-03T07:58:03,42.805,6.029,-0.024,0.037,-0.009,101.0,101.0,100.0,13.3,1505.2,326.8,-0.7,1.9,2470.935,13.29,0.044,327.0
2022-10-03T08:04:03,42.805,6.029,-0.062,0.016,0.015,102.0,101.0,100.0,13.4,1505.2,319.4,-0.7,1.8,2470.996,13.28,0.064,284.5
2022-10-03T08:07:03,42.805,6.029,-0.044,0.029,-0.034,101.0,101.0,100.0,13.4,1505.2,329.6,-0.8,1.8,2470.968,13.28,0.052,303.4
2022-10-03T08:10:03,42.805,6.029,-0.038,0.038,0.0,100.0,102.0,101.0,13.4,1505.2,328.2,-0.7,1.8,2470.964,13.29,0.053,315.0
2022-10-03T08:13:03,42.805,6.029,-0.039,0.021,-0.032,100.0,101.0,100.0,13.3,1505.2,327.8,-0.8,1.8,2470.986,13.29,0.044,298.3
2022-10-03T08:16:03,42.805,6.029,-0.015,0.011,0.007,100.0,102.0,100.0,13.3,1505.2,318.0,-0.8,1.8,2471.0,13.29,0.018,306.3
2022-10-03T08:19:03,42.805,6.029,-0.028,-0.007,-0.026,101.0,101.0,100.0,13.4,1505.2,320.3,-0.8,1.8,2470.976,13.29,0.028,256.0
2022-10-03T08:22:03,42.805,6.029,-0.008,0.039,0.009,100.0,101.0,101.0,13.4,1505.2,325.2,-0.8,1.8,2470.981,13.29,0.039,348.4
2022-10-03T08:25:03,42.805,6.029,-0.04,0.019,-0.011,99.0,101.0,101.0,13.3,1505.2,322.8,-0.7,1.8,2470.948,13.29,0.044,295.4
2022-10-03T08:28:03,42.805,6.029,-0.079,0.016,-0.031,101.0,101.0,100.0,13.3,1505.2,326.3,-0.8,1.8,2470.974,13.29,0.08,281.4
2022-10-03T08:31:03,42.805,6.029,-0.046,0.015,-0.049,103.0,102.0,100.0,13.3,1505.2,316.2,-0.8,1.8,2470.971,13.29,0.048,288.1
2022-10-03T08:34:03,42.805,6.029,0.002,0.038,0.043,102.0,101.0,100.0,13.4,1505.2,333.1,-0.7,1.8,2470.985,13.29,0.038,3.0
2022-10-03T08:37:03,42.805,6.029,-0.027,0.026,-0.019,101.0,102.0,100.0,13.4,1505.2,321.4,-0.7,1.8,2470.972,13.29,0.037,313.9
2022-10-03T08:40:03,42.805,6.029,-0.024,0.011,-0.026,99.0,102.0,100.0,13.4,1505.2,322.7,-0.8,1.8,2470.983,13.29,0.026,294.6
2022-10-03T08:43:03,42.805,6.029,-0.012,0.046,-0.015,101.0,102.0,99.0,13.3,1505.2,330.8,-0.8,1.8,2470.945,13.29,0.047,345.4
2022-10-03T08:46:03,42.805,6.029,-0.064,0.064,0.017,102.0,101.0,100.0,13.4,1505.2,331.8,-0.8,1.8,2470.95,13.29,0.09,315.0
2022-10-03T08:49:03,42.805,6.029,-0.035,0.033,0.021,101.0,102.0,100.0,13.4,1505.2,321.6,-0.8,1.8,2470.992,13.29,0.048,313.3
2022-10-03T08:52:03,42.805,6.029,-0.047,0.02,-0.003,101.0,102.0,100.0,13.4,1505.2,327.2,-0.8,1.8,2470.99,13.29,0.051,293.0
2022-10-03T08:55:03,42.805,6.029,-0.041,0.027,-0.044,100.0,102.0,100.0,13.4,1505.2,333.1,-0.8,1.8,2471.014,13.29,0.049,303.4
2022-10-03T08:58:03,42.805,6.029,-0.023,0.032,-0.005,101.0,102.0,100.0,13.3,1505.2,325.7,-0.8,1.8,2470.952,13.29,0.039,324.3
2022-10-03T09:04:03,42.805,6.029,-0.027,0.019,0.011,100.0,101.0,101.0,13.4,1505.2,321.6,-0.8,1.8,2471.048,13.28,0.033,305.1
2022-10-03T09:07:03,42.805,6.029,-0.022,0.038,0.015,101.0,101.0,101.0,13.4,1505.2,317.8,-0.8,1.8,2471.02,13.29,0.043,329.9
2022-10-03T09:10:03,42.805,6.029,-0.02,0.03,-0.019,101.0,102.0,100.0,13.4,1505.2,332.8,-0.8,1.8,2471.028,13.29,0.036,326.3
2022-10-03T09:13:03,42.805,6.029,-0.042,0.014,-0.007,101.0,102.0,100.0,13.4,1505.2,322.2,-0.7,1.8,2471.019,13.29,0.044,288.4
2022-10-03T09:16:03,42.805,6.029,-0.053,0.02,-0.001,100.0,102.0,100.0,13.4,1505.2,321.0,-0.7,1.8,2471.016,13.29,0.056,290.7
2022-10-03T09:19:03,42.805,6.029,-0.042,0.007,-0.025,101.0,101.0,100.0,13.4,1505.2,317.0,-0.8,1.8,2471.002,13.29,0.042,279.5
2022-10-03T09:22:03,42.805,6.029,-0.046,0.004,-0.041,101.0,101.0,100.0,13.3,1505.2,322.2,-0.7,1.8,2470.996,13.29,0.046,275.0
2022-10-03T09:25:03,42.805,6.029,-0.039,-0.002,-0.064,102.0,100.0,100.0,13.4,1505.2,331.0,-0.7,1.8,2470.997,13.29,0.039,267.1
2022-10-03T09:28:03,42.805,6.029,-0.057,0.01,-0.019,102.0,102.0,100.0,13.3,1505.2,320.8,-0.8,1.8,2470.988,13.29,0.057,279.9
2022-10-03T09:31:03,42.805,6.029,-0.031,0.028,-0.013,100.0,102.0,100.0,13.3,1505.2,322.2,-0.8,1.8,2471.008,13.29,0.041,312.1
2022-10-03T09:34:03,42.805,6.029,-0.025,0.025,0.007,100.0,103.0,100.0,13.3,1505.2,328.0,-0.8,1.8,2471.029,13.29,0.035,315.0
2022-10-03T09:37:03,42.805,6.029,-0.051,0.026,-0.013,101.0,102.0,100.0,13.3,1505.2,319.1,-0.7,1.8,2471.035,13.29,0.057,297.0
2022-10-03T09:40:03,42.805,6.029,-0.038,0.018,0.006,100.0,101.0,101.0,13.3,1505.2,324.3,-0.8,1.8,2471.017,13.29,0.042,295.3
2022-10-03T09:43:03,42.805,6.029,-0.033,0.034,-0.009,102.0,101.0,101.0,13.3,1505.2,327.8,-0.8,1.8,2471.036,13.29,0.047,315.9
2022-10-03T09:46:03,42.805,6.029,-0.044,0.02,-0.017,99.0,103.0,100.0,13.4,1505.2,319.8,-0.8,1.8,2471.073,13.29,0.048,294.4
2022-10-03T09:49:03,42.805,6.029,-0.029,0.01,-0.043,102.0,101.0,100.0,13.3,1505.2,321.8,-0.7,1.8,2471.003,13.29,0.03,289.0
2022-10-03T09:52:03,42.805,6.029,-0.006,0.023,0.005,101.0,101.0,100.0,13.3,1505.2,327.2,-0.8,1.8,2471.042,13.29,0.023,345.4
2022-10-03T09:55:03,42.805,6.029,-0.031,0.019,-0.026,101.0,102.0,99.0,13.3,1505.2,323.0,-0.8,1.8,2470.991,13.29,0.036,301.5